www.pogodaiklimat.ru

Погода и климат >> Архив погоды >> Гана >> Yendi


ПОГОДА в Yendi

  • Прогноз погоды в Yendi
  • Монитор погоды в Yendi
  • Климат города

АРХИВ ПОГОДЫ в Yendi

Время (UTC), дата Ветер
(напр.,м/с)
 
Видим.   Явления Облачность Т
(С)
Тd
(С)
f
(%)
Тe
(С)
Тes
(С)
Комфортность P
(гПа)
Po
(гПа)
Тmin
(С)
Tmax
(С)
R
(мм)
R24
(мм)
S
(см)
06 13.07 Ю 1 12 км {гроза, дождь} 9/3 360 м
[Sc Ac trans]
+23.2 +22.8 98 +32 +32 очень
душно
1015.1 1015.0 +22.7 17
09 13.07 СЗ 1 14 км 9/9 360 м
[Sc]
+24.9 +23.4 91 +33 +35 очень
душно
1016.3 1016.0
12 13.07 ЮЗ 1 14 км 8/8 480 м
[Cu med, cong Ac trans]
+28.5 +23.9 76 +39 +44 очень
душно
1014.8 1015.0
15 13.07 СЗ 1 14 км 8/8 480 м
[Cu med, cong Ci sp]
+31.0 +23.8 66 +43 +45 опасность
перегрева
1013.0 1013.0
18 13.07 СЗ 1 14 км 8/3 480 м
[Cu med, cong Ac trans Cs]
+30.5 +24.0 68 +42 +42 опасность
перегрева
1011.4 1011.0 +31.3
06 14.07 ЮЗ 1 12 км 8/0
[Ac trans Cs]
+24.4 +23.6 95 +33 +33 очень
душно
1014.8 1015.0 +23.8
09 14.07 СЗ 1 15 км 8/4 360 м
[Cu Sc Cs]
+27.1 +24.2 84 +38 +45 очень
душно
1015.2 1015.0
12 14.07 СЗ 1 15 км 9/5 480 м
[Cu med, cong Cs]
+30.1 +24.9 74 +43 +54 опасность
перегрева
1013.4 1013.0
15 14.07 Ю 1 14 км 5/5 480 м
[Cu med, cong Ci sp]
+31.7 +24.7 67 +45 +52 опасность
перегрева
1011.3 1011.0
18 14.07 Ю 1 14 км 5/0
[Ac trans Ci sp]
+31.0 +23.7 65 +42 +42 опасность
перегрева
1010.2 1010.0 +32.5
21 14.07 З 1 12 км 4/0
[Ac trans Ci sp]
+29.6 +24.0 72 +41 +41 опасность
перегрева
1012.5 1013.0
00 15.07 ЮЗ 1 12 км 4/0
[Ac trans Ci sp]
+26.2 +24.2 89 +36 +36 очень
душно
1012.5 1013.0
03 15.07 ЮЗ 1 12 км 9/4 360 м
[Sc Ac trans]
+25.4 +24.4 94 +35 +35 очень
душно
1012.4 1012.0
06 15.07 ЮЗ 1 12 км 9/3 360 м
[Sc Ac trans Cs]
+24.5 +23.4 94 +33 +33 очень
душно
1013.3 1013.0 +24.0
09 15.07 ЮЗ 1 14 км 8/8 360 м
[Cu Sc]
+26.8 +23.4 82 +36 +39 очень
душно
1013.9 1014.0
12 15.07 ЮЗ 2 14 км 8/8 480 м
[Cu med, cong Ci sp]
+30.0 +23.7 69 +41 +46 опасность
перегрева
1014.2 1014.0
15 15.07 ЮЗ 2 14 км 8/6 480 м
[Cu med, cong Ac trans Ci sp]
+31.2 +23.9 65 +43 +46 опасность
перегрева
1011.1 1011.0
18 15.07 СВ 1 10 км в посл. час гроза {дождь} 9/4 360 м
[Cb cap Ac trans]
+26.2 +24.3 89 +36 +36 очень
душно
1011.3 1011.0 +31.4 8
21 15.07 Ю 1 10 км 5/0
[Ac trans Ci sp]
+26.2 +24.8 92 +37 +37 очень
душно
1012.8 1013.0
00 16.07 Ю 1 12 км 4/0
[Ac trans Ci sp]
+25.6 +24.2 92 +35 +35 очень
душно
1014.1 1014.0
03 16.07 ЮЗ 1 12 км 4/0
[Ac trans Ci sp]
+25.0 +23.9 94 +34 +34 очень
душно
1013.3 1013.0
06 16.07 Ю 2 12 км 9/8 360 м
[Sc Ac trans]
+24.9 +23.7 93 +34 +34 очень
душно
1014.8 1015.0 +24.0 8
09 16.07 ЮЗ 1 12 км 9/6 360 м
[Sc Ac trans]
+25.2 +23.4 90 +34 +37 очень
душно
1016.0 1016.0
12 16.07 ЮЗ 2 14 км {дождь} 9/5 360 м
[Cu Sc Ac trans]
+28.1 +23.9 78 +39 +45 очень
душно
1015.3 1015.0 0.0
18 16.07 ЮЗ 1 14 км 8/3 480 м
[Cu med, cong Ac trans Cs]
+28.5 +24.2 78 +40 +40 очень
душно
1012.4 1012.0 +30.1
21 16.07 ЮЗ 1 12 км 5/0
[Ac trans Ci sp]
+25.8 +23.9 89 +35 +35 очень
душно
1014.3 1014.0
03 17.07 штиль 0 10 км 4/0
[Ac trans Ci sp]
+24.0 +23.0 94 +32 +32 очень
душно
1013.8 1014.0
06 17.07 ЮЗ 2 10 км 9/4 360 м
[Sc Ac trans]
+24.1 +23.3 95 +32 +32 очень
душно
1014.8 1015.0 +23.5 0.0
21 17.07 ЮЗ 1 12 км 9/1 360 м
[Sc Ac trans]
+25.8 +23.6 88 +35 +35 очень
душно
1013.9 1014.0
00 18.07 ЮЗ 1 12 км 8/0
[Ac trans Cs]
+25.0 +23.3 90 +33 +33 очень
душно
1015.1 1015.0
06 18.07 Ю 2 12 км 9/4 300 м
[Sc Ac trans]
+23.5 +22.7 95 +31 +31 очень
душно
1015.0 1015.0 +22.4 0.0
12 18.07 ЮЗ 1 12 км 9/3 360 м
[Sc Ac trans Cs]
+27.1 +25.7 92 +40 +50 очень
душно
1015.9 1016.0
15 18.07 З 1 14 км 9/4 420 м
[Cb cap Ac trans]
+29.6 +24.2 73 +41 +46 опасность
перегрева
1013.2 1013.0
18 18.07 ЮЗ 1 14 км 9/4 400 м
[Cb cap Ac trans]
+29.0 +24.0 74 +40 +40 очень
душно
1013.0 1013.0 +29.9
03 19.07 штиль 0 12 км 8/0
[Ac trans]
+25.5 +24.1 92 +35 +35 очень
душно
1014.0 1014.0
09 19.07 ЮЗ 1 12 км 9/1 360 м
[Cu Sc Ac trans]
+27.0 +24.0 84 +37 +43 очень
душно
1015.4 1015.0
18 19.07 ЮЗ 2 14 км 8/3 360 м
[Cu Sc Ac trans]
+30.1 +23.8 69 +41 +41 опасность
перегрева
1011.0 1011.0 +32.4
21 19.07 ЮЗ 1 9000 м слабый дождь {гроза} 8/1 360 м
[Sc Ac trans Ci sp]
+26.3 +24.5 90 +37 +37 очень
душно
1012.5 1013.0

 

Местоположение метеостанции Yendi (Гана): широта 9.45 долгота -0.02 высота над уровнем моря 197 м.

В архиве по умолчанию представлена погода в Yendi за последнюю неделю. Архивные данные за месяц целиком и за предыдущие месяцы, начиная с января 2011 года, Вы можете получить, выбрав интересующий диапазон дат из раскрывающегося списка и нажав кнопку "Ввод!".


*Определитесь, кто Вы:
робот инопланетянин человек

Внимание! Время в таблицах - всемирное. Для получения местного времени необходимо прибавить поправку, которая в Yendi равна 1 ч.

Смотрите также архив погоды в соседних городах и на ближайших метеорологических станциях:

Погода в Tamale (Гана) (91 км)
Погода в Mango (Того) (116 км)
Погода в Niamtougou (Того) (128 км)
Погода в Kara (Того) (131 км)
Погода в Sokode (Того) (139 км)
Погода в Dapaon (Того) (163 км)
Погода в Kete-Krachi (Гана) (181 км)
Погода в Natitingou (Бенин) (181 км)
Погода в Navrongo (Гана) (200 км)
Погода в Po (Буркина-Фасо) (226 км)

Пояснения к столбцам:

Ветер - указаны скорость ветра в м/с - средняя за 10 мин, порывы в срок и между сроками (в фигурных скобках) и направление, откуда дует ветер: С - северный, СВ - северо-восточный, В - восточный, ЮВ - юго-восточный, Ю - южный, ЮЗ - юго-западный, З - западный, СЗ - северо-западный.
Видимость - горизонтальная дальность видимости в метрах или километрах. При видимости от 1 до 10 км при отсутствии осадков обычно наблюдается дымка, при ухудшении видимости до 1 км и менее - туман. В сухую погоду видимость может ухудшаться дымом, пылью или мглою.
Явления - указаны атмосферные явления, наблюдавшиеся в срок или в последний час перед сроком; фигурными скобками обозначены явления, наблюдавшиеся между сроками (за 1-3 часа до срока); квадратными скобками обозначены град или гололедные отложения с указанием их диаметра в мм.
Облачность - указаны через наклонную черту общая и нижняя облачность в баллах и высота нижней границы облаков в метрах; квадратными скобками обозначены формы облаков: Ci - перистые, Cs - перисто-слоистые, Cc - перисто-кучевые, Ac - высококучевые, As - высокослоистые, Sc - слоисто-кучевые, Ns - слоисто-дождевые, Cu - кучевые, Cb - кучево-дождевые. Подробнее классификацию облаков см. в Атласе облаков (PDF).
T - Температура воздуха - температура, измеренная на высоте 2 м над землей.
Td - Температура точки росы - температура, при понижении до которой содержащийся в воздухе водяной пар достигнет насыщения.
f - Относительная влажность воздуха - влажноcть воздуха, измеренная на высоте 2 м над землей.
Te - Эффективная температура - температура, которую ощущает одетый по сезону человек в тени. Характеристика душности погоды. При расчете учитывается влияние влажности воздуха и скорости ветра на теплоощущения человека.
Tes - Эффективная температура на солнце - температура, которую ощущает человек, с поправкой на солнечный нагрев. Характеристика знойности погоды. Зависит от высоты солнца над горизонтом, облачности и скорости ветра. Ночью, в пасмурную погоду, а также при ветре 12 м/с и более поправка равна нулю.
P - Атмосферное давление - приведенное к уровню моря атмосферное давление.
Po - Атмосферное давление - измеренное на уровне метеостанции атмосферное давление.
Tmin - Минимальная температура - минимум температуры воздуха на высоте 2 м над землей.
Tmax - Максимальная температура - максимум температуры воздуха на высоте 2 м над землей.
R - Количество осадков - Количество выпавших осадков за период времени, мм. При наведении курсора мыши на число - период времени, за который выпало указанное количество осадков.
R24 - Количество осадков - Количество выпавших осадков за 24 часа, мм.
S - Снежный покров - Высота снежного покрова, см. При наведении курсора мыши на число - состояние снежного покрова и степень покрытия местности в баллах.